GFSNW_925_temp_054.txt.gz
Temp
6 7 8 8 8 8 9 13 15 17 15 15 17 18 20 21 24 27 26 26 27 27 27 26 26 26 27 28 28 26 27 26 25 26 28 28 27 26 27 23 24 24 22 23
6 7 8 8 8 8 9 14 16 15 16 16 17 19 21 23 24 26 25 25 26 27 26 26 26 27 25 27 27 26 27 25 23 25 26 27 25 26 27 26 25 23 20 23
6 7 8 8 8 8 11 16 15 13 14 19 19 19 21 22 25 26 26 26 27 26 26 27 26 26 24 24 25 18 23 25 24 23 25 26 25 26 26 26 21 22 23 25
6 7 7 8 8 7 9 16 18 17 14 16 19 21 22 22 23 25 26 26 26 26 24 25 25 26 23 23 17 23 24 23 25 26 26 26 25 26 26 25 25 23 24 25
6 7 7 7 7 8 9 16 19 18 19 18 18 19 21 23 24 24 24 24 26 26 25 26 25 26 24 23 22 23 24 23 23 23 24 25 23 25 25 25 25 26 26 26
6 7 6 7 7 7 10 15 19 18 17 18 19 20 21 22 25 25 26 26 26 25 26 26 25 27 27 26 23 23 24 22 21 20 21 21 18 22 23 24 26 25 24 25
6 6 6 7 7 7 11 15 17 16 18 19 20 21 22 22 24 24 26 26 25 25 25 25 25 25 25 25 25 25 23 22 19 18 15 17 23 26 25 24 25 25 26 26
6 6 6 7 7 7 8 14 15 17 13 20 20 21 22 23 24 24 25 23 24 24 24 21 20 19 18 20 23 23 24 20 17 14 18 22 23 25 24 23 23 24 24 24
6 6 6 6 7 7 7 9 10 14 17 19 22 22 22 22 23 21 18 21 23 24 22 19 20 20 22 22 21 22 22 21 17 16 15 15 23 23 23 23 20 23 23 23
6 6 6 6 7 7 6 9 10 12 14 20 22 22 22 24 22 21 20 18 19 20 16 13 15 20 24 22 19 13 16 15 15 16 15 18 24 22 22 19 19 22 21 22
6 5 6 6 7 7 6 8 9 10 15 22 23 24 23 24 22 19 20 19 20 19 15 13 18 17 21 22 23 17 16 16 13 16 13 15 23 21 20 20 21 20 21 20
6 5 6 6 6 6 6 8 10 10 13 17 17 16 17 18 18 23 20 22 21 21 19 17 17 14 13 19 20 24 20 21 19 18 17 21 22 21 20 20 20 20 19 19
6 6 6 6 7 7 6 8 10 12 15 17 19 18 16 16 16 18 20 21 23 22 22 19 18 14 19 14 19 22 23 22 20 20 22 22 22 21 20 19 18 18 17 17
6 6 5 6 7 6 6 8 10 12 15 13 15 16 16 15 17 18 19 22 20 20 19 16 11 13 21 19 22 21 22 21 20 21 22 22 18 17 16 17 16 17 16 16
6 6 6 6 6 6 7 7 10 11 13 13 14 16 15 17 17 18 19 20 19 18 14 9 17 19 18 18 19 19 22 21 18 18 17 18 16 15 16 16 15 15 14 13
6 6 6 6 7 7 8 11 12 12 13 15 13 14 16 17 18 18 19 20 21 19 14 15 17 17 17 13 17 20 19 18 17 18 17 15 15 15 15 13 13 12 11 10
6 6 7 7 9 9 11 11 11 12 14 12 10 12 13 15 17 16 16 16 15 17 14 13 15 16 16 11 16 17 16 17 15 16 16 14 15 12 11 11 9 8 7 6
7 8 9 8 9 10 11 9 12 12 13 12 9 10 11 13 13 13 13 14 14 12 11 12 13 13 13 14 16 16 15 15 14 14 14 13 12 10 9 8 7 7 6 6
8 7 8 9 11 11 10 11 12 12 13 8 8 9 11 13 11 10 11 12 9 11 10 12 13 11 12 14 14 14 13 13 13 13 13 12 9 8 7 7 7 7 7 8
8 9 12 8 8 9 11 11 12 10 9 9 10 9 10 11 10 9 10 9 10 11 10 12 12 11 11 11 11 11 12 13 12 10 9 8 7 7 8 9 8 8 7 5
12 10 8 8 9 10 9 9 9 9 9 10 11 11 10 10 10 8 8 9 9 11 11 12 11 11 9 10 10 11 11 10 10 10 9 9 8 8 8 6 5 4 3 1
13 12 10 10 11 9 9 8 8 10 10 8 9 9 9 8 10 8 7 8 9 11 11 10 12 8 9 9 9 9 8 8 8 7 8 8 8 7 6 4 3 2 0 -1
13 9 7 9 7 9 10 9 10 9 7 7 8 8 7 8 9 7 8 9 10 11 9 11 9 8 8 8 8 8 8 8 8 8 6 5 4 3 2 1 1 1 -0 -2
6 8 8 8 9 8 7 7 8 5 6 7 7 7 8 7 7 8 8 8 10 9 10 10 8 8 7 8 8 8 6 4 6 5 3 1 0 -0 -1 -1 -2 -2 -2 -3
5 6 7 6 4 4 4 4 4 4 6 7 8 8 8 7 7 8 7 8 9 11 11 7 7 7 7 7 7 6 4 2 3 2 0 0 0 0 -1 -2 -2 -3 -4 -4
4 4 5 4 5 5 4 4 4 4 5 7 9 8 7 8 8 9 8 10 11 8 6 5 5 6 7 7 5 5 5 4 3 1 0 -0 0 0 -1 -2 -3 -3 -4 -5
4 4 2 3 3 4 3 3 3 3 6 7 8 8 8 8 8 8 7 7 6 4 4 4 5 5 6 6 5 4 4 4 3 2 1 -0 -1 -1 -1 -0 -2 -2 -3 -4

GFSNW_925_temp_060.txt.gz
Temp
4 5 5 6 7 7 8 9 10 12 11 11 9 13 15 15 18 19 19 20 20 22 20 21 20 21 22 22 21 21 20 18 17 20 21 21 21 21 20 16 20 16 14 17
4 4 5 5 7 7 7 9 11 10 12 11 11 13 15 16 17 18 19 20 21 22 23 22 20 21 22 22 22 20 19 18 16 19 20 21 21 21 21 18 15 17 13 16
4 4 4 5 6 6 8 9 11 10 11 13 13 13 14 14 17 17 18 18 19 20 22 22 21 21 22 20 20 17 19 19 18 17 19 20 22 22 22 19 13 17 16 19
3 4 4 5 6 6 8 9 13 13 12 11 14 14 14 15 15 17 19 19 19 19 20 22 21 20 20 21 17 21 19 20 20 20 21 22 22 22 22 21 19 17 19 18
4 4 4 5 6 6 7 9 12 13 11 13 12 13 14 15 16 18 18 18 19 19 20 20 20 20 19 20 20 20 19 19 20 20 19 19 20 21 20 20 21 20 20 19
3 4 4 4 5 6 7 8 9 12 14 13 12 13 15 16 17 18 19 19 19 19 20 20 20 20 19 20 18 18 18 16 14 17 16 17 15 18 19 20 20 20 19 19
4 4 4 4 5 5 8 9 10 12 12 13 13 14 15 16 17 17 19 19 19 20 18 18 18 17 17 18 17 18 16 15 12 12 12 13 18 19 19 19 18 18 17 17
4 4 4 4 5 4 7 9 9 10 10 14 14 14 15 16 17 17 18 20 19 18 18 16 17 14 15 17 17 18 17 12 12 12 12 15 18 21 19 19 18 17 16 17
4 4 4 4 3 3 7 8 8 8 11 13 16 14 16 16 16 16 17 17 15 16 14 13 15 14 17 17 18 16 15 12 12 10 12 12 16 19 20 18 15 18 16 16
4 4 4 4 4 3 6 8 7 7 10 12 16 15 15 17 16 15 15 16 16 14 9 10 12 14 17 15 15 13 10 9 11 7 9 11 15 18 19 16 15 16 15 16
4 3 4 4 4 5 6 7 6 6 9 10 13 16 15 17 17 13 13 14 13 11 11 11 12 10 14 13 16 14 14 11 9 9 7 13 16 19 17 14 15 13 13 13
3 4 3 5 5 6 6 7 7 6 7 9 10 12 14 17 19 16 13 16 14 13 12 10 10 11 9 12 13 16 14 14 12 12 12 14 15 16 15 14 13 14 12 13
4 4 5 5 6 7 6 7 6 6 8 9 11 12 15 16 18 21 13 13 14 13 12 12 11 12 10 12 11 15 17 15 14 14 15 14 13 13 13 12 11 11 12 12
4 5 5 6 6 6 6 6 7 8 9 9 12 14 15 16 16 18 20 15 13 11 10 8 9 10 12 11 15 14 14 15 15 12 12 13 12 13 11 9 8 8 7 10
4 5 6 6 6 7 6 6 7 6 8 9 11 12 14 15 15 15 17 14 13 11 9 7 10 11 12 11 12 14 15 15 13 12 13 12 11 10 10 8 7 7 6 5
6 6 6 6 6 6 6 5 5 6 7 7 9 10 11 12 13 12 12 11 11 11 10 9 11 12 10 9 9 14 13 13 13 12 10 9 8 8 8 7 6 6 5 5
5 4 5 6 6 6 7 7 9 9 7 8 8 9 10 11 11 9 10 10 9 11 11 10 10 10 9 6 9 12 12 11 10 10 9 8 8 6 6 5 5 5 5 4
5 5 5 6 6 7 8 9 8 8 8 9 7 10 10 10 9 9 8 8 8 9 9 8 8 9 7 9 11 11 10 11 10 9 9 7 6 5 5 5 5 4 3 2
5 5 5 6 6 7 8 8 8 8 8 6 6 9 10 9 8 8 8 6 8 6 7 8 9 7 8 10 10 10 11 10 8 7 7 6 5 5 4 4 4 3 2 2
5 5 6 6 9 8 8 9 8 6 5 5 7 7 9 9 6 6 7 5 7 9 7 9 6 7 9 8 9 9 9 8 7 6 5 4 4 4 4 4 3 2 1 -0
5 6 6 7 8 9 7 6 6 6 6 6 8 7 9 7 8 7 5 6 6 9 9 9 8 8 8 8 8 9 9 8 8 7 6 5 5 3 2 1 0 -1 -1 -2
8 8 8 8 7 5 7 6 6 7 7 6 7 7 6 6 6 6 5 7 6 8 7 8 9 8 8 7 7 8 8 7 7 7 5 4 4 2 1 -1 -2 -3 -3 -3
8 6 7 7 5 7 7 7 7 7 5 6 5 6 5 5 5 5 6 7 8 4 7 8 6 7 7 6 6 6 6 5 6 5 4 2 1 0 -1 -3 -3 -3 -4 -4
5 7 7 7 7 6 5 6 6 4 4 5 5 5 5 4 6 5 8 6 6 5 5 7 6 7 6 6 5 4 3 2 2 1 0 -1 -1 -3 -3 -3 -3 -4 -5 -5
4 4 6 5 3 4 3 3 4 3 4 4 4 5 5 5 6 5 5 8 8 7 7 6 6 6 6 4 3 2 1 0 0 -1 -2 -2 -3 -3 -4 -4 -4 -4 -5 -6
3 3 5 4 5 5 4 4 4 3 3 3 5 6 7 7 6 7 7 7 7 7 5 5 5 4 4 3 2 2 1 0 -1 -2 -2 -3 -3 -3 -4 -4 -4 -5 -5 -6
3 3 2 3 3 3 3 2 3 2 3 5 3 8 7 5 7 6 5 5 4 4 3 4 4 3 3 2 1 0 0 -0 -1 -2 -2 -3 -3 -4 -5 -5 -5 -5 -6 -7

GFSNW_925_temp_063.txt.gz
Temp
4 4 5 5 6 6 6 7 8 10 10 11 11 11 14 15 17 17 18 18 18 19 19 19 19 20 21 21 19 20 19 17 17 20 21 21 21 20 18 15 19 15 14 16
4 4 5 4 5 5 6 7 9 9 11 11 11 12 13 15 17 16 17 17 18 19 19 20 19 19 21 20 19 19 18 17 16 19 20 19 20 19 19 16 14 15 13 16
4 4 4 4 4 5 6 7 8 10 10 13 14 12 13 13 16 15 16 17 18 19 20 21 20 19 21 19 20 17 18 17 18 17 19 20 21 21 20 18 13 16 15 18
4 4 4 4 6 6 5 7 10 11 10 11 13 13 13 13 15 15 15 15 16 17 18 20 20 20 20 20 16 19 18 18 18 18 20 20 21 21 19 18 18 17 18 16
4 4 4 4 6 6 4 7 10 11 11 12 12 13 13 13 14 15 15 15 18 17 17 19 19 19 19 19 20 19 18 17 19 19 18 18 20 19 20 19 20 18 18 18
4 4 4 5 6 5 4 7 8 10 12 12 12 13 13 14 15 15 16 16 17 17 17 18 18 18 19 19 18 17 17 15 13 17 15 17 14 16 18 19 19 19 18 18
4 4 4 4 4 4 5 8 9 10 11 12 12 13 14 14 15 15 16 16 16 18 17 17 17 16 16 17 16 16 15 14 11 12 12 13 17 18 19 18 18 17 18 17
3 4 4 4 4 4 4 9 8 9 8 13 13 13 13 14 15 15 16 17 18 17 17 16 17 13 16 17 15 17 15 11 11 12 12 15 18 19 17 18 18 17 16 15
4 4 4 4 4 4 4 6 9 7 10 12 14 13 13 13 13 14 15 16 15 16 13 12 15 15 16 16 17 14 14 11 12 8 12 13 15 18 19 17 15 17 15 14
4 4 4 4 4 4 4 6 8 8 9 11 13 13 13 15 15 14 14 14 15 14 8 10 11 13 16 15 14 13 10 9 11 7 9 12 14 17 18 16 15 15 14 14
3 4 4 4 4 4 4 4 6 7 8 8 10 14 13 14 15 13 12 14 13 10 11 10 10 10 14 14 15 13 14 11 9 7 8 14 15 16 16 14 13 14 13 12
3 4 4 4 4 4 3 4 6 6 6 8 8 9 11 12 16 15 12 15 13 13 11 9 10 11 9 12 13 14 15 13 12 12 12 14 15 16 14 12 12 12 11 10
4 4 3 4 5 4 4 4 6 5 6 6 8 10 14 14 14 18 13 12 14 13 12 11 11 13 10 12 12 14 15 13 13 14 15 14 13 12 12 12 12 11 10 9
3 4 4 4 4 5 4 6 6 7 6 8 11 12 12 14 15 17 18 15 12 10 10 9 9 10 13 12 15 13 14 14 12 11 12 12 13 11 9 8 8 8 8 8
3 4 4 4 4 5 5 7 6 7 7 8 9 10 12 12 13 15 16 13 12 10 10 7 10 11 11 10 11 12 13 13 12 12 12 12 12 9 8 8 7 7 6 5
4 4 4 5 5 6 7 6 6 7 7 7 8 9 11 11 12 12 12 11 11 10 10 9 10 11 9 9 10 14 13 13 13 14 11 9 8 7 7 6 5 5 5 5
4 5 4 5 6 6 7 5 7 6 6 7 7 9 11 10 10 9 10 9 10 10 10 9 10 10 9 6 9 13 11 9 9 8 8 7 7 6 5 5 5 4 4 3
4 4 5 6 6 7 6 7 7 8 7 8 7 9 9 10 9 10 7 8 8 9 9 8 8 9 6 10 11 10 9 9 8 7 8 7 5 5 4 4 4 3 2 2
5 6 6 6 6 6 7 7 7 8 8 6 5 9 10 9 8 8 7 7 8 6 7 6 8 7 10 11 11 10 9 9 7 6 6 6 5 4 4 3 3 2 1 1
5 6 6 5 6 9 7 7 6 6 5 5 6 7 9 8 6 6 7 5 7 9 8 7 5 8 8 8 9 9 7 7 7 5 5 4 4 3 3 3 3 2 1 -0
5 5 5 7 8 8 6 5 4 5 6 5 7 8 9 7 8 7 5 7 6 9 9 9 8 9 7 7 7 7 7 7 7 7 6 6 4 3 2 1 0 -0 -1 -2
6 6 7 7 7 5 7 6 4 6 7 6 7 6 7 5 5 6 5 7 6 10 7 8 9 7 6 6 6 6 6 6 6 5 5 4 3 2 1 -0 -1 -2 -3 -4
6 6 5 6 4 7 8 8 7 7 5 5 5 6 5 4 3 5 7 8 7 6 8 9 8 7 6 6 6 6 6 5 5 4 3 1 0 -0 -1 -2 -3 -3 -4 -4
5 6 7 6 7 6 6 6 6 4 4 5 5 5 5 3 6 5 7 6 7 7 6 6 6 6 6 5 5 5 3 2 2 1 -0 -1 -2 -3 -3 -3 -4 -4 -5 -5
4 5 5 5 3 3 3 3 4 3 3 4 4 4 4 5 6 5 6 7 8 6 5 5 5 5 4 3 2 1 1 0 -0 -0 -2 -2 -3 -3 -4 -4 -4 -5 -5 -6
2 2 5 4 5 5 4 4 4 3 3 3 3 5 7 6 6 6 5 7 7 5 5 4 5 4 3 2 1 1 0 -0 -1 -2 -3 -3 -3 -4 -4 -5 -5 -5 -6 -6
3 3 2 3 3 3 3 3 3 2 3 5 2 7 7 5 6 6 5 5 4 3 3 3 3 2 1 1 -0 -1 -2 -2 -3 -3 -3 -3 -4 -5 -5 -5 -6 -6 -7 -7

GFSNW_925_temp_069.txt.gz
Temp
5 5 5 5 5 4 5 5 6 8 9 8 9 11 13 14 16 16 16 16 16 17 18 17 18 19 20 18 19 20 19 18 18 20 20 20 20 21 20 19 19 17 18 20
5 5 6 5 5 4 5 5 5 8 8 8 10 11 13 14 14 16 16 16 16 17 18 18 17 18 19 17 19 19 18 18 19 20 20 19 20 19 18 17 16 18 19 21
5 5 5 5 5 5 5 5 5 6 7 10 11 11 12 13 14 15 16 16 16 17 17 17 18 18 19 16 19 16 19 17 19 20 21 20 19 19 18 19 17 19 19 21
5 5 5 5 5 5 5 5 6 8 8 8 10 11 12 13 13 14 14 14 16 16 17 17 18 18 18 17 15 17 19 19 18 18 19 19 20 20 18 19 20 20 21 18
5 5 5 5 5 4 4 5 6 8 9 9 9 11 12 13 14 14 14 14 15 16 16 18 18 18 18 18 16 17 16 19 17 18 17 18 19 19 18 18 18 19 18 18
5 5 5 5 5 4 5 5 4 6 10 10 9 10 12 13 14 14 15 15 15 15 16 17 16 17 18 18 18 16 16 16 16 18 16 17 16 17 18 19 18 19 19 21
6 5 5 5 4 5 6 6 6 6 9 10 10 10 11 12 14 13 14 15 15 16 17 16 16 15 15 15 15 16 15 15 14 15 13 16 20 17 18 18 19 18 18 18
6 5 5 4 4 5 6 6 5 6 8 11 11 11 11 12 13 13 14 14 15 15 16 14 14 14 15 15 14 15 15 13 13 15 16 17 18 17 18 18 21 18 18 18
6 5 5 4 4 5 6 5 6 6 8 10 11 11 11 11 12 12 13 13 14 15 13 12 13 14 16 16 15 13 13 13 15 11 16 17 18 18 16 18 18 19 17 16
5 5 5 4 4 5 5 5 6 5 7 8 9 11 11 12 12 12 11 13 13 14 9 10 12 14 17 16 14 13 13 11 15 11 14 15 16 16 16 18 20 17 16 16
5 5 5 4 4 4 5 5 6 6 5 7 7 9 11 12 13 12 10 13 12 10 11 10 11 12 14 15 15 14 15 14 13 11 13 17 15 16 18 18 14 15 14 14
5 5 4 4 4 4 5 4 5 5 5 7 6 7 7 12 14 13 13 13 13 12 12 10 10 11 9 15 17 14 15 16 15 16 17 16 15 18 16 15 16 14 14 13
5 4 4 4 4 4 5 4 4 4 5 5 6 7 9 10 12 15 12 10 12 11 11 10 12 12 12 12 13 15 14 13 15 16 16 15 14 14 14 13 14 13 12 11
4 4 4 4 4 4 4 5 4 5 6 5 7 9 8 10 12 13 14 13 11 10 10 9 9 12 13 13 16 15 15 14 14 14 14 13 14 13 13 12 11 10 9 10
4 4 4 4 4 4 4 5 4 6 6 6 7 8 9 10 11 11 13 11 11 10 10 7 12 11 12 11 12 13 14 15 15 16 16 17 19 15 12 11 11 9 8 7
4 4 3 3 4 4 4 4 4 4 4 6 6 8 8 10 10 10 12 13 11 11 10 9 10 10 12 11 14 15 14 13 13 17 13 11 8 8 9 10 9 8 8 7
3 3 3 4 4 3 4 5 6 6 5 6 6 6 9 10 10 9 9 9 9 11 10 9 11 10 11 8 13 14 11 11 11 10 10 10 9 10 7 7 6 5 5 5
4 4 4 4 3 5 5 6 5 6 6 6 6 7 9 9 9 9 8 8 8 8 10 8 10 9 8 11 12 10 9 9 8 8 7 9 6 5 4 5 5 4 3 3
4 4 3 3 4 4 5 5 6 7 7 5 5 7 10 8 8 8 7 8 9 7 8 9 10 9 11 13 12 10 9 10 9 6 6 6 6 5 4 4 4 3 3 3
4 4 4 3 5 5 5 5 5 6 6 5 6 6 8 8 7 7 8 6 8 9 9 9 9 9 9 10 11 11 10 8 7 6 5 4 4 4 4 5 4 3 2 1
4 5 4 4 6 6 5 5 5 5 6 5 7 8 8 6 8 7 5 7 6 10 10 10 10 10 9 7 8 8 7 7 7 7 6 7 6 4 3 2 1 1 0 -0
5 5 6 5 6 5 5 6 5 6 8 6 7 7 7 5 6 7 5 7 6 10 7 9 10 8 6 6 5 5 6 6 5 5 4 4 3 2 1 0 -1 -2 -3 -4
6 5 4 5 4 6 6 6 6 7 5 5 6 6 5 4 5 5 6 8 8 6 9 10 8 7 6 5 5 4 4 4 3 3 2 1 -0 -1 -2 -3 -3 -4 -4 -5
3 4 6 6 6 6 6 5 6 4 4 5 5 5 6 4 6 5 8 6 6 9 10 8 6 5 5 4 4 3 1 1 0 -0 -1 -2 -3 -4 -4 -4 -5 -5 -5 -6
3 4 6 5 4 4 3 3 4 3 3 4 5 5 6 5 6 5 7 8 8 7 7 5 4 3 2 2 1 0 -1 -1 -2 -2 -3 -4 -4 -4 -5 -5 -6 -6 -7 -7
2 2 4 4 5 4 3 4 4 2 3 3 4 6 6 6 6 7 6 6 6 5 4 3 2 1 0 -0 -1 -1 -2 -2 -3 -3 -4 -4 -5 -6 -6 -7 -7 -7 -7 -7
2 2 1 1 2 2 2 2 1 1 4 5 5 7 7 6 6 5 4 4 3 3 2 1 0 -0 -1 -1 -2 -2 -3 -3 -4 -4 -5 -6 -6 -6 -5 -5 -6 -7 -7 -7

GFSNW_925_temp_072.txt.gz
Temp
5 5 5 5 5 5 4 5 5 8 7 6 8 10 14 16 18 19 18 18 19 19 21 21 22 23 24 24 25 23 25 24 23 24 25 25 26 25 25 23 23 23 22 23
5 5 5 6 5 5 5 5 6 8 8 7 8 11 13 16 17 18 18 18 18 19 19 20 22 22 22 23 24 24 24 23 22 23 23 23 24 25 25 24 23 23 22 23
5 5 5 5 5 5 4 6 6 7 7 11 11 11 13 14 16 17 18 18 19 18 19 20 20 20 20 21 24 19 22 24 23 23 24 25 23 24 24 24 23 23 24 25
5 5 5 5 5 5 4 6 7 10 7 7 11 12 13 14 14 16 18 17 18 19 18 19 19 20 19 19 16 22 23 23 24 25 25 25 25 25 25 24 24 24 25 25
5 5 5 5 5 5 4 5 8 11 11 10 9 11 12 14 15 16 16 17 18 19 19 19 17 19 20 21 19 21 22 23 23 23 24 24 24 24 25 24 25 25 25 25
5 5 5 5 5 4 4 7 10 12 10 11 8 9 11 13 16 17 17 18 19 18 18 18 18 18 19 20 20 20 21 22 21 21 22 22 19 22 24 24 24 24 24 26
5 5 5 5 5 5 5 7 10 9 11 11 11 11 12 13 15 15 17 18 18 19 18 18 18 19 18 19 20 20 20 21 21 20 16 18 23 23 25 25 25 25 25 25
5 6 6 5 5 5 5 6 10 10 9 13 12 11 12 13 14 15 16 17 18 19 17 16 16 15 17 19 20 20 21 21 19 17 20 23 22 20 22 23 24 26 25 26
5 6 6 5 5 4 5 7 9 11 10 11 13 12 12 12 13 13 16 18 17 18 16 16 16 16 18 19 18 17 18 19 20 16 19 18 23 24 24 23 22 26 25 24
5 5 6 5 5 4 4 7 8 10 10 12 13 13 11 13 14 14 14 15 15 17 16 13 14 16 19 18 17 14 15 16 17 19 18 22 22 20 22 21 23 24 24 24
5 5 5 5 5 4 5 6 7 10 10 10 11 13 12 13 14 14 15 15 15 15 14 13 16 16 18 19 20 18 18 17 16 18 16 18 19 19 22 25 21 23 21 22
5 5 5 5 5 4 5 6 6 8 8 9 8 8 8 7 14 15 15 16 16 17 16 15 17 14 14 19 18 19 18 20 20 20 22 23 21 24 23 22 24 21 22 21
5 5 5 5 5 4 4 5 5 6 6 9 8 10 9 9 8 10 14 16 18 17 18 16 17 15 17 15 18 20 19 17 19 19 23 22 21 22 18 20 20 20 19 19
5 5 5 5 4 4 4 4 5 7 8 7 10 9 9 9 10 10 12 17 15 17 16 16 13 15 19 19 20 20 21 20 20 21 22 19 19 19 20 19 18 17 16 18
5 5 5 4 4 4 4 4 5 7 9 7 9 10 9 9 9 11 12 15 16 15 14 9 14 18 17 17 17 19 19 20 19 19 23 21 24 21 19 19 18 17 16 15
5 5 4 4 4 3 4 4 5 6 7 6 7 9 9 8 9 11 13 15 16 16 16 15 17 15 17 15 18 21 22 21 21 21 16 18 15 13 13 16 18 17 16 15
4 4 4 4 3 5 7 7 6 5 5 5 6 7 9 9 9 12 13 14 15 15 15 13 16 15 15 12 16 21 20 20 16 14 14 17 15 16 12 13 13 12 13 12
4 4 3 3 5 5 6 6 5 5 5 5 7 7 7 9 10 10 13 13 13 12 14 11 13 11 12 14 18 20 18 15 14 14 14 14 11 10 10 11 10 10 10 9
3 3 3 3 4 6 6 5 4 6 6 6 6 8 8 8 8 9 9 12 10 9 11 12 15 11 13 16 19 18 16 14 17 13 12 10 11 11 10 10 10 9 8 8
3 3 3 3 4 5 5 5 6 6 6 7 6 5 6 8 7 7 9 9 9 9 10 12 12 15 16 15 14 15 16 14 12 11 10 9 10 9 9 9 9 8 7 6
5 4 4 5 5 5 5 5 6 6 6 7 8 7 6 6 6 7 7 8 8 11 11 13 12 14 14 11 11 12 12 12 11 11 10 10 9 8 8 7 4 3 2 1
4 5 6 5 6 7 6 6 6 6 9 8 8 9 7 6 6 7 6 9 6 10 9 12 12 10 8 8 8 9 10 10 9 9 8 8 7 6 5 3 2 0 -2 -3
5 6 5 8 6 6 7 7 7 7 7 7 7 8 7 7 7 6 7 9 9 6 9 9 8 7 6 6 6 6 7 7 6 5 4 2 1 1 0 -1 -2 -3 -3 -4
5 6 7 8 6 7 8 8 9 8 7 6 7 7 8 5 7 6 10 7 7 10 11 8 6 4 4 3 3 2 1 0 0 -1 -1 -1 -2 -3 -3 -3 -3 -3 -3 -4
4 5 7 6 5 4 4 3 5 4 5 6 7 7 7 6 7 7 7 9 9 8 7 5 3 2 2 1 0 -0 -1 -2 -2 -2 -3 -3 -3 -3 -4 -4 -5 -5 -6 -6
3 3 4 3 5 4 3 3 4 2 3 4 6 6 7 7 7 7 7 8 7 5 4 3 1 1 -0 -1 -1 -2 -2 -3 -3 -3 -4 -4 -4 -5 -5 -6 -6 -6 -6 -7
3 3 1 1 2 1 1 1 1 1 4 6 6 8 7 7 7 6 5 4 3 2 1 0 0 -1 -1 -2 -2 -2 -3 -3 -3 -3 -4 -4 -4 -4 -4 -4 -6 -6 -7 -8

GFSNW_925_temp_075.txt.gz
Temp
5 5 5 5 6 5 5 5 6 9 8 7 7 8 13 15 18 21 22 22 23 22 22 21 20 22 25 26 27 26 27 26 25 25 27 28 28 26 27 25 25 25 25 25
5 5 5 5 5 5 5 5 6 9 9 7 8 11 13 14 17 19 21 21 21 22 21 20 22 22 24 25 26 26 26 25 24 25 26 26 26 27 27 27 26 25 22 24
5 5 5 5 5 5 5 4 6 8 7 12 12 12 13 14 16 17 21 21 21 21 20 21 21 21 22 22 25 21 24 25 24 24 25 26 25 26 27 26 24 24 25 26
5 5 5 5 5 5 5 5 8 11 7 7 12 13 14 14 15 16 18 20 21 20 19 20 20 21 21 20 18 23 25 24 25 26 27 27 27 26 26 26 26 25 25 26
5 5 5 5 5 5 5 5 10 12 13 10 11 12 13 15 16 17 17 18 20 21 20 20 20 21 19 21 21 22 25 23 24 24 26 26 26 27 27 27 27 27 27 26
5 5 5 5 5 5 5 6 11 13 12 12 11 12 13 14 17 18 19 18 19 20 21 20 20 20 19 19 20 22 23 23 23 22 25 25 23 25 26 27 27 26 25 27
5 5 5 5 5 5 5 7 12 11 11 13 13 12 13 14 16 16 18 19 18 20 22 20 19 17 18 19 19 21 21 22 23 21 18 20 24 26 27 26 27 27 27 27
5 5 5 4 5 5 5 7 11 12 10 14 14 13 13 14 15 16 16 19 20 21 20 18 17 14 14 16 18 20 21 21 21 19 21 23 25 24 25 25 25 27 27 27
5 5 5 5 5 5 5 8 10 13 12 14 15 14 13 13 13 15 16 17 19 20 18 17 17 16 18 18 17 21 21 21 20 19 19 19 23 25 26 27 24 27 27 27
5 5 5 5 5 5 5 7 10 12 12 14 15 12 12 14 14 14 16 15 17 17 16 14 15 17 21 20 18 15 17 17 17 19 19 22 26 26 27 22 23 27 27 27
5 5 5 5 5 5 5 5 9 11 12 13 14 14 14 14 14 13 15 15 16 15 14 13 16 18 20 21 22 21 17 18 17 19 17 18 23 22 23 25 27 26 26 26
5 5 5 5 5 5 5 5 8 10 11 11 10 11 11 15 15 14 15 16 16 17 16 17 17 17 18 20 19 23 20 20 20 21 22 24 23 25 24 26 26 26 25 26
5 5 5 5 5 5 5 6 8 9 8 9 11 12 11 10 10 12 11 16 19 18 20 19 18 16 20 17 19 21 22 23 21 22 23 24 24 24 24 25 24 25 24 24
5 5 5 5 5 4 5 7 8 8 10 9 11 12 12 11 10 10 10 12 15 19 19 17 17 16 21 20 21 21 22 23 21 22 23 24 23 23 23 24 22 23 22 23
5 5 5 5 4 5 5 7 8 9 12 9 11 12 12 11 11 10 11 11 13 14 16 14 15 19 20 21 21 21 23 22 21 20 23 23 24 23 24 23 23 22 22 21
5 5 5 4 4 5 6 4 6 9 8 9 7 9 13 12 11 11 12 13 13 13 17 15 18 20 20 17 18 21 22 23 23 23 23 22 20 19 19 21 22 22 21 21
5 5 4 3 5 7 7 7 7 7 8 9 8 9 11 12 13 12 12 12 13 13 15 16 17 19 18 16 17 21 23 23 23 23 20 19 20 21 16 17 17 16 19 19
5 3 3 4 6 5 7 6 7 7 8 9 7 8 8 10 10 11 13 11 13 12 14 15 16 16 15 16 19 20 22 22 20 20 19 19 17 16 16 15 15 15 15 15
3 3 3 3 4 6 6 5 6 8 9 6 5 8 7 4 9 12 12 13 12 14 13 14 15 15 14 17 19 20 21 21 21 20 17 16 16 15 14 14 14 13 12 13
3 4 4 4 5 5 5 4 5 7 8 8 7 7 7 6 4 10 10 11 11 10 11 16 13 15 18 17 17 17 18 18 16 16 15 14 15 14 13 14 13 12 11 11
7 7 6 6 5 4 5 5 5 6 6 9 10 8 9 6 6 7 8 9 10 11 13 14 15 15 17 14 15 14 15 16 15 14 15 14 14 13 12 11 10 9 7 5
5 6 5 5 5 6 7 7 6 6 9 9 9 8 9 6 4 5 7 10 9 12 12 13 13 9 9 10 11 12 13 13 12 12 12 11 10 8 5 3 2 -0 -2 -2
7 7 6 6 6 6 7 7 8 8 9 9 8 8 8 6 4 5 7 9 10 8 10 10 7 6 6 7 8 8 9 8 7 6 5 3 2 2 1 -0 -1 -2 -3 -3
7 6 6 8 6 8 10 10 9 7 7 7 8 6 6 5 5 6 8 7 7 10 11 8 5 4 3 3 2 2 2 1 0 -0 -1 -1 -2 -2 -2 -2 -3 -2 -3 -4
5 7 7 6 5 4 4 4 5 4 5 7 8 7 6 6 7 7 7 9 9 8 8 5 3 2 1 0 -0 -1 -1 -2 -2 -2 -2 -2 -3 -3 -3 -4 -4 -4 -5 -5
4 3 5 4 6 4 3 3 4 2 3 5 7 7 7 8 8 8 7 9 7 5 4 2 1 -0 -1 -1 -2 -2 -2 -2 -2 -3 -3 -3 -3 -3 -4 -4 -5 -5 -5 -5
5 3 2 2 3 2 1 -0 0 0 3 6 7 8 7 8 7 6 5 4 3 2 1 1 0 -0 -1 -1 -1 -2 -2 -2 -2 -2 -2 -3 -3 -4 -4 -4 -6 -6 -6 -7

GFSNW_925_temp_078.txt.gz
Temp
5 5 5 5 5 5 5 5 5 6 8 7 8 8 11 13 15 18 18 19 19 22 23 22 22 22 23 24 25 25 26 25 24 26 28 28 28 26 26 24 24 24 22 24
4 5 5 5 5 5 5 5 5 7 9 7 8 10 11 13 14 16 17 18 20 21 21 22 22 22 23 23 22 24 25 24 22 25 27 27 26 27 27 27 26 24 22 24
4 5 5 5 5 5 5 4 6 7 7 11 11 11 11 12 14 15 18 18 19 17 18 18 21 22 22 20 21 17 21 25 24 23 25 26 25 27 27 27 23 24 24 26
5 5 5 5 5 5 5 3 6 9 7 7 10 12 13 13 13 15 16 16 17 15 15 16 21 19 20 20 21 21 22 22 25 26 26 27 26 26 26 26 26 25 26 26
5 5 5 5 5 5 5 3 8 11 11 10 9 11 13 13 15 15 15 16 17 18 15 21 20 21 16 17 19 20 22 22 24 23 25 26 26 27 27 26 26 26 27 26
5 5 5 5 5 5 6 4 9 11 10 9 10 10 12 14 15 16 17 17 17 17 16 17 19 21 19 18 18 17 19 22 22 21 24 24 22 25 26 27 27 27 25 27
4 4 5 5 5 5 5 5 8 8 9 12 10 12 12 14 15 15 17 18 18 20 20 15 17 16 19 19 17 16 17 18 21 19 18 19 24 27 27 26 26 27 27 27
4 4 4 5 5 5 5 5 8 9 9 12 13 12 13 14 15 15 16 18 19 21 19 16 13 15 15 16 19 17 16 17 15 18 19 22 24 25 25 25 24 27 26 27
4 4 4 4 4 5 5 5 7 10 10 12 14 13 13 14 14 15 16 17 17 19 17 14 12 13 17 16 17 18 16 16 16 17 18 18 22 25 25 25 22 26 27 26
4 4 4 4 4 4 4 5 6 9 9 12 14 12 13 14 15 14 15 16 14 17 14 12 12 15 19 17 17 15 15 14 16 17 17 20 24 24 24 21 21 26 27 27
4 4 4 4 5 4 4 5 5 8 9 12 13 11 10 14 14 14 15 15 14 14 13 12 13 14 17 18 20 16 14 14 16 17 15 17 23 22 22 23 24 26 26 26
5 4 5 4 5 4 4 5 6 8 9 9 11 12 11 15 16 16 15 15 15 16 15 15 15 15 15 17 16 20 17 17 17 19 19 22 21 23 23 24 25 24 26 26
5 5 5 5 5 4 5 5 6 8 7 7 9 11 12 12 13 14 14 16 17 17 18 16 17 15 18 15 18 20 22 22 20 19 21 20 20 18 22 23 22 25 25 24
5 5 5 5 5 5 5 5 7 7 7 8 10 13 14 13 12 13 14 15 14 11 12 15 15 15 19 17 19 20 21 22 22 22 22 22 23 20 22 23 24 23 24 23
5 5 5 5 5 5 5 6 7 8 11 8 10 13 13 13 13 12 13 12 12 10 11 11 15 17 18 19 19 19 22 22 20 20 22 21 22 23 24 22 23 23 22 22
5 5 5 5 5 5 6 5 7 9 8 11 9 12 13 13 13 13 12 13 12 10 10 13 16 19 18 15 17 21 22 23 23 22 23 21 20 19 19 19 21 21 22 22
5 5 5 5 5 6 6 7 5 7 9 10 9 10 12 13 12 13 12 12 12 10 11 12 15 17 18 14 15 20 21 22 22 22 22 19 20 19 18 18 18 18 20 20
4 4 4 5 5 7 7 6 8 9 10 11 7 9 8 7 11 11 12 12 11 10 11 14 15 16 16 15 18 19 20 21 22 20 19 19 17 17 17 17 17 17 17 16
4 4 5 6 6 6 6 7 7 8 9 7 5 9 8 4 7 11 11 11 8 10 10 12 15 14 14 17 18 19 20 20 20 22 20 17 17 17 16 15 15 14 14 14
5 6 4 3 5 6 7 6 5 7 8 8 7 9 7 5 5 8 11 11 10 9 11 12 10 14 17 19 19 17 18 18 18 17 15 16 16 15 15 14 14 13 12 10
6 6 5 4 5 5 6 5 6 7 6 9 10 9 7 5 7 6 9 9 9 10 12 12 12 14 15 15 15 16 16 16 15 15 15 16 15 14 10 6 4 4 2 0
7 5 5 5 5 5 7 6 5 7 8 10 9 9 9 6 6 6 6 9 8 10 14 12 14 8 10 12 13 13 13 13 12 12 10 8 7 5 4 1 0 -1 -2 -3
9 8 6 6 5 7 8 7 8 8 10 9 8 7 7 4 5 5 6 9 9 8 12 12 7 5 5 6 7 6 6 6 4 3 2 1 1 -0 -1 -2 -3 -3 -4 -4
6 6 6 7 6 7 7 8 10 7 8 8 7 6 5 4 5 5 8 7 8 10 10 8 4 3 2 2 2 1 0 0 -0 -1 -1 -1 -1 -2 -3 -3 -3 -4 -4 -4
5 6 6 6 4 4 3 4 5 3 5 7 7 6 5 5 6 6 7 8 9 8 7 5 2 1 -0 -1 -1 -1 -1 -1 -2 -2 -2 -3 -3 -3 -4 -4 -5 -5 -5 -5
4 3 4 3 5 4 2 1 2 2 2 4 5 5 7 7 7 8 7 9 7 5 3 2 0 -1 -1 -1 -2 -2 -2 -2 -3 -3 -3 -3 -4 -4 -4 -5 -5 -5 -5 -5
4 3 2 2 3 1 -0 -1 -0 1 3 6 6 7 7 7 7 5 4 3 2 2 1 0 -1 -1 -1 -1 -1 -2 -2 -2 -2 -3 -3 -4 -4 -4 -4 -5 -5 -5 -6 -6

GFSNW_925_temp_081.txt.gz
Temp
4 4 5 5 5 5 5 5 5 6 7 6 6 7 8 10 12 13 14 14 14 15 16 16 16 18 20 22 22 22 21 21 20 21 24 26 25 23 23 18 21 19 18 18
4 4 5 5 5 5 5 4 5 6 7 7 7 8 9 9 9 11 12 13 15 15 15 15 16 17 21 22 21 20 21 20 19 21 23 25 24 24 24 22 20 20 15 18
4 4 4 5 5 5 5 2 5 6 6 7 8 7 8 9 11 10 12 13 14 14 13 16 15 13 18 21 21 16 19 20 20 18 21 23 23 24 24 22 18 19 18 22
4 4 4 4 5 5 5 3 5 7 6 7 7 9 9 9 10 12 12 12 12 13 14 15 15 15 12 19 17 20 19 18 20 21 23 23 24 24 23 23 22 22 22 22
4 4 4 4 5 5 5 3 5 7 8 8 7 7 9 9 11 12 12 11 13 14 14 15 14 13 11 13 19 18 17 18 19 19 21 23 23 23 23 24 24 23 23 22
4 4 4 5 5 5 5 4 6 8 8 8 7 8 8 10 11 12 14 14 13 13 14 15 14 13 12 13 16 16 16 15 18 17 20 20 18 22 23 23 24 23 21 22
5 5 5 5 5 5 5 5 6 6 7 8 8 9 9 9 11 11 13 14 13 15 15 14 13 13 12 14 16 17 15 15 15 15 16 17 21 23 24 23 24 25 24 24
5 5 5 5 5 5 4 5 6 6 6 8 9 9 10 10 11 11 12 14 14 14 13 12 11 11 11 13 16 15 15 14 12 13 16 18 20 23 23 23 22 25 24 24
4 4 5 5 5 5 4 4 4 7 6 7 10 10 10 10 10 10 12 14 14 13 13 13 11 12 11 14 16 17 15 14 13 12 14 15 19 21 25 24 19 23 24 23
4 4 4 4 4 4 4 5 4 5 6 8 10 9 9 11 12 10 11 12 13 12 9 7 10 10 14 12 14 13 12 11 11 12 12 14 21 22 23 19 17 22 24 24
4 4 4 4 4 4 4 4 5 5 6 8 11 10 8 10 11 10 11 11 11 9 8 9 10 9 13 13 16 14 13 13 11 11 12 13 20 22 21 19 20 22 23 23
4 4 4 4 4 4 4 5 4 4 6 7 9 10 10 11 11 11 11 12 12 10 10 9 10 9 9 13 11 17 13 13 13 15 14 17 19 19 17 18 19 22 23 22
5 5 4 4 4 4 4 4 4 4 6 6 8 9 11 10 11 10 10 10 13 11 12 10 10 11 12 10 12 16 17 17 16 16 18 19 18 18 19 18 17 20 21 20
4 4 5 4 4 4 4 4 5 5 3 5 7 9 11 11 10 10 13 12 12 10 10 10 9 8 13 12 14 14 16 17 17 17 19 19 19 19 21 19 19 19 22 22
5 5 5 4 5 4 4 4 5 5 6 6 8 9 11 11 12 12 12 11 10 8 8 7 10 11 11 12 14 14 18 17 15 14 18 18 19 19 19 19 19 19 18 20
4 5 5 5 5 4 4 5 5 6 7 8 7 10 10 12 12 11 12 10 9 8 8 8 11 12 13 8 11 17 18 18 18 18 20 18 16 15 16 16 16 16 18 20
5 5 5 5 4 4 5 5 6 6 8 7 6 7 10 10 11 9 9 10 8 8 8 8 9 10 10 6 11 16 17 18 19 18 18 17 17 15 15 15 15 15 14 14
5 5 5 4 4 5 5 6 6 7 8 7 4 6 7 5 8 8 8 8 8 7 9 9 10 11 11 10 15 16 17 17 18 18 15 15 14 14 14 14 13 12 12 11
5 5 5 5 5 5 5 6 7 8 7 4 5 5 6 4 5 7 9 7 5 7 6 8 9 9 10 13 15 16 16 17 17 17 14 14 13 13 13 12 11 10 9 5
5 6 4 3 5 6 7 6 5 5 5 4 3 5 4 5 5 5 6 6 6 8 8 9 8 8 13 13 13 13 14 14 15 13 13 12 12 9 7 5 4 3 2 0
5 5 4 4 6 6 5 4 4 4 5 4 6 6 5 5 5 5 5 6 6 8 9 10 9 8 11 11 12 11 12 10 8 7 8 9 7 5 2 0 -1 -1 -2 -3
6 5 4 5 5 5 6 5 5 4 5 5 5 5 6 4 5 5 3 7 7 6 8 7 8 7 6 7 6 5 5 4 4 4 3 2 2 0 -0 -1 -2 -3 -4 -4
6 5 4 6 4 6 4 6 4 7 4 5 5 6 5 4 5 5 5 7 7 7 6 7 6 4 4 4 3 2 2 1 1 0 -0 -1 -2 -2 -2 -3 -4 -4 -5 -5
4 4 6 6 6 6 5 6 5 5 5 5 5 5 5 4 4 5 7 7 7 8 9 7 4 2 1 1 1 0 -1 -1 -1 -2 -2 -2 -3 -3 -4 -4 -4 -4 -5 -6
3 4 5 4 3 3 1 2 3 2 2 4 5 4 4 5 6 5 7 7 8 6 4 2 1 -0 -1 -1 -1 -1 -2 -2 -2 -3 -3 -4 -4 -4 -5 -5 -5 -5 -6 -6
1 2 3 2 3 1 0 -1 1 1 0 2 4 5 6 7 6 7 5 6 4 3 1 -1 -1 -1 -2 -2 -2 -2 -3 -3 -3 -4 -4 -4 -5 -5 -5 -6 -6 -6 -6 -6
3 0 -0 0 1 -1 -1 -1 -1 -1 1 5 5 5 5 5 5 3 2 1 1 -0 -1 -1 -1 -2 -2 -2 -2 -3 -3 -3 -4 -4 -4 -5 -5 -5 -5 -5 -6 -6 -7 -7

GFSNW_925_temp_084.txt.gz
Temp
4 4 4 4 4 5 5 5 5 6 5 5 6 6 8 9 10 11 11 11 12 11 13 12 13 15 15 17 16 17 19 19 18 20 22 23 22 22 22 18 20 18 16 18
4 4 4 4 4 5 5 5 5 5 6 6 6 7 7 8 9 9 10 11 12 13 13 12 13 15 16 15 13 18 18 18 17 20 20 21 21 22 22 21 18 19 16 18
4 4 4 4 4 5 4 2 4 5 6 6 8 7 7 7 10 9 9 9 11 10 10 13 12 14 16 14 14 13 17 17 20 19 20 21 21 22 23 22 19 19 17 20
4 4 4 4 4 5 4 2 4 6 5 6 6 7 9 8 8 10 10 9 9 9 9 11 12 14 13 13 13 14 17 16 18 19 20 21 21 21 22 22 21 20 21 20
4 4 4 4 4 4 5 3 5 6 6 7 7 7 7 8 9 9 10 9 10 11 9 10 12 13 13 13 12 12 15 16 18 17 19 21 20 21 22 22 22 21 21 21
3 4 4 4 4 4 5 4 4 6 7 7 6 7 7 9 9 10 11 10 10 10 11 12 12 12 13 12 12 10 12 14 16 15 19 20 17 18 20 21 21 22 20 21
3 3 4 4 4 4 4 5 5 5 6 6 7 8 8 8 9 9 11 11 10 12 13 12 12 12 12 12 12 11 12 14 12 12 15 16 17 20 21 22 22 21 23 23
4 4 4 4 4 4 4 4 5 5 6 7 7 9 9 9 9 9 9 11 12 12 12 11 12 9 11 12 13 13 13 13 12 13 13 17 19 20 21 21 21 22 22 23
4 4 4 4 5 4 5 4 4 5 6 6 8 8 8 8 8 8 9 10 11 12 10 9 9 8 11 12 12 14 13 13 12 11 12 13 17 19 21 22 19 22 22 22
4 4 4 4 5 5 4 5 4 4 5 6 8 8 8 9 9 8 9 10 9 10 8 9 8 10 13 11 11 10 10 10 11 11 12 12 16 18 21 19 17 21 22 24
4 4 4 4 4 5 4 4 4 4 3 5 8 9 8 9 9 8 9 9 9 7 7 7 8 7 11 12 13 11 11 10 8 10 10 12 17 18 19 17 19 20 22 22
4 4 4 4 4 4 4 4 4 3 4 5 5 9 11 11 11 10 10 10 10 9 8 6 8 9 8 12 12 14 12 12 11 12 12 15 17 17 17 17 18 19 18 20
4 4 4 4 4 4 4 4 4 4 4 4 4 6 10 11 11 11 9 8 11 9 9 8 9 9 10 9 11 14 14 14 13 14 17 16 17 17 18 18 18 19 20 19
4 4 4 4 4 4 4 4 4 4 4 4 6 7 10 10 10 10 9 9 9 9 8 8 7 7 11 11 13 13 15 15 14 14 16 18 18 17 18 19 19 19 19 19
5 4 4 4 4 4 4 4 4 5 5 6 5 8 10 11 10 10 9 8 8 7 7 6 8 9 10 9 11 13 14 14 13 13 16 17 19 18 17 17 19 18 18 19
4 5 5 4 4 4 4 4 3 4 6 6 6 8 9 9 10 9 8 9 8 7 7 7 9 10 11 8 9 14 15 15 16 16 18 17 16 16 15 16 16 14 16 17
5 5 5 5 4 4 4 5 5 4 5 4 6 6 7 9 9 8 7 8 7 7 6 6 7 9 11 8 9 13 14 16 16 16 16 16 15 14 14 13 13 11 11 11
5 5 4 4 4 4 5 7 5 5 5 4 5 6 6 5 6 7 6 6 6 6 6 6 7 8 8 8 12 13 14 15 15 16 15 14 12 13 12 11 10 7 5 5
5 4 4 4 4 5 5 5 5 6 4 4 2 4 6 4 5 6 6 5 5 5 4 6 7 7 8 10 11 12 13 15 15 13 13 12 12 11 10 8 6 4 2 1
4 4 4 2 5 5 5 5 3 4 5 3 1 3 5 5 4 5 7 4 4 6 7 7 5 7 10 10 9 8 8 9 12 11 11 9 7 5 4 3 2 1 -0 -1
5 4 3 5 6 5 4 4 4 4 5 3 4 4 5 4 4 5 2 6 3 6 6 7 8 8 9 9 8 6 4 5 5 6 6 6 4 2 0 -1 -1 -2 -3 -3
5 4 4 5 5 4 5 4 4 4 5 4 5 4 4 3 3 3 4 6 6 7 6 6 9 7 5 5 4 3 3 3 3 2 2 1 0 -1 -1 -2 -3 -3 -4 -4
6 4 4 5 3 4 2 4 5 3 4 3 4 5 4 4 4 4 5 6 7 6 6 6 6 4 3 3 2 1 1 0 -0 -0 -1 -2 -2 -3 -3 -3 -4 -5 -5 -5
3 2 4 3 4 4 3 5 5 3 3 2 4 5 5 4 5 5 6 5 6 8 8 7 3 2 1 1 0 -0 -1 -1 -2 -2 -2 -3 -3 -4 -4 -5 -5 -5 -6 -6
1 2 2 2 2 1 0 1 2 1 1 3 4 4 5 4 5 5 6 7 8 6 5 2 1 0 -0 -1 -1 -2 -2 -3 -3 -3 -4 -4 -4 -5 -5 -5 -6 -6 -6 -7
0 -1 1 0 -0 -1 -0 -1 0 -0 0 2 4 5 5 6 5 5 3 4 3 1 -1 -1 -1 -1 -2 -2 -2 -3 -3 -3 -4 -4 -4 -5 -5 -5 -6 -6 -6 -7 -7 -7
-1 -2 -2 -2 -3 -3 -1 -2 -1 -1 1 5 5 4 3 3 3 1 1 -0 -1 -1 -1 -1 -2 -2 -3 -3 -3 -4 -4 -4 -5 -5 -5 -5 -5 -6 -6 -6 -7 -7 -8 -8

GFSNW_925_temp_087.txt.gz
Temp
3 3 4 4 4 4 4 4 4 6 5 5 4 5 7 8 9 10 10 10 10 10 10 10 12 12 14 15 14 13 14 15 16 18 20 21 21 21 21 18 18 16 16 18
3 3 3 4 4 4 4 4 5 5 5 5 5 7 7 8 8 9 9 9 11 11 11 10 11 12 14 15 15 13 12 12 14 17 18 20 20 20 20 18 17 16 16 17
3 3 3 4 4 4 3 4 4 5 5 6 5 6 7 7 8 8 9 9 9 8 8 10 9 11 13 14 14 12 11 12 13 16 18 18 19 21 21 20 16 17 18 19
3 3 4 4 4 4 4 4 4 5 5 5 6 7 8 7 8 8 8 8 8 8 8 8 9 10 12 13 12 13 11 12 14 16 19 20 20 20 20 20 19 19 20 19
3 3 4 4 4 4 4 4 4 5 5 7 6 6 6 8 8 8 8 8 9 9 8 9 9 11 11 12 11 11 11 11 12 15 17 20 20 20 20 19 19 19 20 20
3 3 4 4 4 3 4 4 3 5 6 7 6 7 7 7 8 9 9 9 8 8 8 10 10 10 10 11 12 11 9 11 12 14 17 18 16 18 20 21 20 20 19 19
3 3 3 3 3 3 4 4 4 4 5 5 6 8 8 8 8 8 10 9 9 10 11 11 10 9 10 11 12 13 11 10 10 12 15 15 18 19 20 19 21 20 21 21
3 3 3 3 3 3 4 4 4 5 5 7 6 7 8 8 8 8 9 10 10 10 10 10 9 8 10 10 12 12 12 12 11 12 13 15 17 17 18 18 18 20 21 21
3 3 3 3 3 3 3 4 4 5 5 6 8 7 8 7 7 7 8 10 10 10 9 8 8 8 9 11 12 13 12 12 12 11 12 13 15 18 19 19 17 20 21 20
4 4 4 4 4 4 4 4 4 4 5 6 7 7 7 8 8 7 8 9 7 8 6 6 7 9 11 10 10 11 11 10 12 11 12 12 14 15 17 14 15 18 21 19
4 4 4 4 5 4 4 4 4 4 4 5 8 8 8 8 8 7 8 9 8 6 5 4 7 6 9 10 13 11 11 11 10 10 10 11 16 16 17 16 16 18 20 21
4 4 4 4 5 5 4 4 3 4 4 5 6 7 8 10 10 9 9 10 9 8 6 5 6 6 5 10 10 12 11 12 11 12 11 13 15 18 18 17 17 18 17 19
4 4 4 4 4 5 4 4 3 3 2 3 4 5 7 9 9 11 9 7 10 10 9 7 7 8 8 7 9 12 13 13 12 13 14 14 15 15 16 16 18 18 18 16
4 4 4 4 4 4 4 4 3 4 3 4 4 7 6 8 9 9 11 11 9 8 7 7 6 6 9 9 11 12 13 13 13 13 14 15 16 16 16 17 18 18 17 18
4 4 4 4 4 4 4 4 4 5 5 3 3 6 7 8 8 8 9 10 9 8 8 6 8 7 9 8 9 10 13 14 12 13 15 15 15 17 16 15 16 16 17 17
5 4 4 4 4 3 4 2 3 4 6 4 4 5 6 8 8 8 8 8 9 8 7 7 7 9 8 6 8 12 14 14 14 14 15 15 14 14 14 15 12 14 15 16
4 4 4 4 4 4 3 4 4 4 5 5 4 6 6 8 8 8 7 7 8 8 7 6 7 9 9 6 7 11 12 12 12 12 13 14 15 15 11 11 9 8 7 7
4 4 4 4 4 3 4 6 4 4 5 4 4 6 6 6 7 7 7 7 6 6 7 6 7 7 6 6 9 11 12 12 12 12 12 13 12 10 9 8 6 4 3 2
4 4 4 4 3 4 5 5 4 5 5 4 4 5 6 4 5 6 5 6 6 4 5 5 6 5 6 9 9 9 8 9 9 13 11 10 9 8 7 6 4 2 0 -0
4 3 3 3 5 4 4 4 4 4 4 3 3 3 5 5 4 4 5 2 3 6 6 6 5 6 8 9 8 7 6 6 6 10 9 7 5 4 3 2 1 -0 -1 -2
4 3 4 5 6 5 3 3 4 4 4 3 4 4 5 4 4 5 2 5 3 5 6 6 8 8 7 7 5 4 4 4 3 4 7 6 3 1 -0 -1 -1 -2 -3 -3
4 4 5 5 4 3 4 4 4 4 5 3 5 3 4 3 2 3 4 4 5 6 5 7 7 6 5 5 4 3 3 2 1 1 1 0 -1 -1 -2 -2 -3 -4 -4 -5
7 5 4 4 2 2 3 4 5 4 1 2 4 4 5 4 3 3 4 5 5 5 7 7 6 4 3 2 2 1 0 -0 -0 -1 -1 -2 -2 -3 -3 -4 -4 -5 -6 -6
3 2 1 0 1 2 2 4 5 2 3 3 4 4 5 4 4 4 5 4 6 7 6 6 4 2 1 1 0 0 -1 -2 -2 -2 -3 -3 -3 -4 -5 -5 -5 -6 -6 -7
1 2 1 1 1 0 -0 0 1 0 1 3 4 4 5 5 3 4 5 6 6 6 5 2 1 0 -1 -1 -2 -2 -2 -3 -3 -4 -4 -4 -5 -5 -5 -6 -6 -7 -7 -8
-1 -1 -0 -1 -1 -1 -1 -1 -1 -1 -0 2 4 5 5 4 4 5 3 3 2 0 -0 -1 -1 -1 -2 -2 -3 -3 -3 -4 -4 -5 -5 -5 -6 -6 -6 -7 -7 -7 -8 -8
-2 -2 -3 -3 -4 -3 -2 -3 -2 -1 0 4 4 3 2 3 2 1 1 -0 -1 -2 -1 -2 -2 -3 -3 -4 -4 -4 -4 -5 -5 -5 -5 -6 -6 -6 -6 -7 -8 -8 -9 -10

GFSNW_925_temp_090.txt.gz
Temp
3 3 3 3 4 4 4 4 4 5 5 4 4 5 5 8 7 9 9 9 9 9 10 9 10 11 12 13 14 13 11 11 12 16 18 19 19 19 19 18 17 15 15 19
3 3 3 3 4 4 3 3 4 4 4 4 4 6 6 7 7 7 8 8 9 8 9 8 9 10 12 12 13 12 13 11 12 14 17 18 17 18 19 18 16 18 16 17
3 3 3 3 4 4 3 3 3 3 4 4 5 5 5 6 7 7 7 8 8 8 7 8 8 9 10 11 11 12 12 11 11 12 13 14 14 18 19 18 15 17 18 19
3 3 3 3 4 4 3 3 3 5 4 4 4 5 6 6 6 7 8 7 7 7 7 8 8 9 9 10 12 11 11 10 12 12 13 12 12 16 19 18 18 17 18 18
3 3 3 3 3 4 3 3 4 4 5 5 5 5 5 6 7 8 7 7 8 8 6 7 8 9 9 10 11 12 10 9 11 11 13 14 14 17 18 18 18 18 18 17
3 3 3 3 3 3 3 3 3 4 6 5 5 6 6 7 7 8 9 8 7 7 7 9 9 9 9 9 9 9 9 9 11 12 12 11 13 16 18 18 18 18 17 18
3 3 3 3 3 3 3 3 3 4 4 5 6 7 7 7 8 7 8 8 7 8 10 9 9 8 8 9 9 9 9 9 10 11 11 13 15 17 19 18 18 18 19 19
3 3 3 3 3 3 3 3 4 4 5 5 6 7 7 8 8 8 8 9 10 10 9 7 7 8 8 8 8 9 9 10 10 11 12 12 14 17 18 17 18 18 18 18
3 3 3 3 3 3 3 3 3 4 5 6 7 6 6 6 6 7 7 9 10 9 6 6 7 7 9 9 11 10 11 11 10 10 11 12 14 15 15 18 15 18 17 17
3 3 3 3 3 3 3 3 3 4 4 6 7 6 6 8 7 7 8 8 7 8 6 6 7 8 10 8 8 9 10 10 10 11 11 11 14 14 14 15 15 18 17 17
3 3 3 3 3 3 3 4 3 4 3 5 6 7 7 7 8 6 8 8 6 6 6 5 6 6 8 9 10 11 9 10 11 11 11 12 14 13 12 14 14 16 16 16
4 4 4 4 4 4 3 4 3 3 4 4 6 8 9 9 9 9 8 8 8 6 7 4 5 5 4 8 9 11 10 10 11 11 12 14 14 15 15 15 15 15 16 16
4 4 4 4 5 5 4 4 4 3 2 2 4 5 8 9 9 10 8 6 9 8 8 7 6 6 6 6 7 10 11 12 11 11 14 14 13 14 14 15 15 15 16 15
4 4 4 4 5 5 5 4 3 3 3 4 4 4 5 8 8 8 8 9 9 8 8 7 7 5 8 7 9 8 10 12 12 12 14 15 15 16 15 15 16 16 15 16
4 4 4 4 4 5 4 4 3 3 4 4 3 5 6 7 7 7 8 8 8 7 7 6 7 7 7 7 7 8 10 11 10 11 13 13 13 14 15 15 14 11 13 16
4 4 4 4 4 4 4 3 3 3 5 4 4 4 5 7 7 7 7 8 8 7 6 5 6 8 8 6 6 10 11 11 12 13 12 11 12 12 11 12 9 7 7 8
4 4 4 4 4 4 3 4 4 3 5 4 3 3 5 6 6 5 6 7 7 8 7 7 8 7 8 3 8 9 10 10 10 10 11 12 12 11 8 8 7 6 5 4
5 5 4 4 4 3 3 5 3 4 3 4 2 1 6 6 5 6 5 6 7 7 6 6 7 7 6 7 8 9 11 11 11 11 10 11 9 7 7 6 5 3 2 1
5 4 4 3 2 3 4 3 4 5 4 3 3 1 6 5 6 6 6 6 5 4 5 6 6 6 7 8 9 8 9 9 11 9 10 9 7 6 5 5 4 2 0 -0
3 2 2 2 4 4 4 4 4 3 4 3 2 4 5 5 5 5 5 5 6 7 6 5 6 7 7 8 8 8 8 8 7 8 8 6 5 3 1 1 0 -1 -2 -2
3 4 4 4 4 4 3 3 3 4 4 3 3 4 5 3 5 5 4 5 4 5 5 6 7 7 6 6 5 3 3 4 3 4 2 5 3 -0 -1 -1 -1 -2 -3 -3
5 4 5 5 4 3 3 2 3 4 4 4 4 4 4 3 3 5 4 5 5 6 4 6 8 5 5 4 3 3 2 1 0 0 -0 -0 -1 -1 -2 -2 -3 -4 -5 -6
7 4 2 4 2 3 4 1 4 4 3 3 4 4 3 3 2 3 4 5 6 4 6 8 6 4 3 2 1 1 0 -0 -1 -1 -2 -2 -2 -3 -3 -4 -5 -5 -6 -7
2 2 2 -0 -3 -0 2 3 4 2 3 4 2 4 4 4 4 4 5 2 4 7 6 6 4 2 1 0 0 -0 -1 -2 -2 -2 -3 -3 -4 -5 -5 -6 -6 -6 -7 -8
-1 0 -0 0 -0 -1 -1 -0 1 0 1 3 3 4 4 4 4 4 4 5 6 6 3 0 1 0 -0 -1 -2 -2 -3 -3 -4 -4 -4 -5 -5 -6 -6 -7 -7 -8 -8 -9
-2 -3 -2 -2 -2 -2 -2 -2 -1 -1 -1 1 4 4 4 4 3 5 4 4 3 -2 -2 -2 -1 -2 -2 -3 -3 -4 -4 -4 -5 -5 -5 -6 -6 -7 -7 -8 -8 -8 -9 -9
-2 -4 -4 -4 -4 -4 -4 -4 -3 -3 -0 3 3 3 2 2 1 1 0 -1 -1 -3 -3 -3 -3 -3 -4 -4 -4 -5 -5 -5 -6 -6 -6 -7 -7 -8 -8 -8 -9 -9 -10 -11

GFSNW_925_temp_093.txt.gz
Temp
4 4 4 4 4 4 3 3 3 4 4 4 5 4 5 7 7 8 8 9 9 9 10 10 10 11 13 13 12 13 12 13 12 15 17 18 19 19 20 18 19 17 19 21
3 3 3 3 4 4 2 3 3 3 4 4 4 6 6 6 7 7 8 8 9 9 9 9 9 10 12 11 11 11 12 11 12 16 17 16 16 16 17 18 18 19 18 20
3 3 3 3 4 4 3 2 3 3 4 5 5 5 6 5 7 6 7 7 8 8 8 8 9 9 10 11 11 12 12 12 12 14 14 14 13 14 15 14 16 19 19 20
3 3 3 3 3 4 2 2 3 4 3 4 4 5 6 6 6 7 7 7 7 8 7 8 8 9 10 11 11 11 12 11 12 13 14 14 14 14 14 14 15 16 20 20
2 2 3 3 3 3 2 2 3 3 4 5 4 5 5 5 6 7 7 7 8 8 6 7 9 9 9 9 10 9 8 10 11 11 12 13 13 15 15 15 15 17 19 20
2 2 2 3 3 3 2 3 3 4 5 5 5 5 5 6 7 7 8 8 7 7 7 8 8 8 8 8 8 8 8 9 10 12 13 14 13 15 15 16 17 19 18 20
2 2 2 3 3 3 2 4 4 3 4 5 5 6 6 6 6 6 8 8 6 8 8 7 7 8 8 8 9 9 8 9 9 10 10 12 16 16 16 16 17 20 20 20
2 2 2 3 3 3 2 3 4 3 3 5 5 6 6 7 7 7 7 6 8 8 6 7 7 9 8 9 8 9 9 9 9 10 12 14 16 15 15 13 15 18 20 21
3 3 3 3 3 3 3 2 3 3 4 5 7 6 7 6 5 6 6 7 8 6 6 7 7 8 9 11 11 10 9 9 10 10 10 12 15 16 14 16 16 17 18 18
3 3 3 3 3 3 3 3 2 3 3 4 6 5 6 7 6 6 7 8 7 6 6 7 7 8 10 9 9 9 8 8 8 10 10 13 15 14 15 14 15 14 16 17
3 3 3 3 3 3 3 3 3 3 3 4 5 7 7 7 7 6 7 7 6 6 7 7 7 7 10 10 11 11 10 9 9 10 10 10 14 14 14 12 12 15 16 17
3 3 3 3 3 3 3 3 3 3 3 3 4 6 8 9 9 8 8 7 7 6 7 7 7 7 7 10 10 11 11 12 12 10 10 12 13 14 14 15 14 15 15 16
4 4 4 3 3 3 3 3 3 3 3 2 4 5 6 8 9 10 8 8 9 6 8 6 6 7 8 9 10 11 12 12 12 12 13 13 14 15 14 15 14 15 15 15
3 4 4 4 4 3 3 3 3 3 2 4 4 4 5 7 8 8 8 9 9 9 8 6 7 7 7 9 11 11 13 12 12 12 13 13 14 14 14 14 15 15 15 14
4 4 4 4 4 4 4 4 3 3 5 4 4 4 5 6 7 6 7 8 8 8 7 6 7 7 7 8 8 10 12 13 12 12 13 13 14 13 13 13 11 10 12 14
4 4 4 4 4 4 4 3 3 3 3 4 4 5 5 5 6 6 7 7 7 7 6 6 7 8 9 7 8 11 12 12 13 12 14 12 12 12 11 11 9 8 8 8
5 4 4 4 4 3 3 4 4 3 3 4 4 4 4 5 6 6 6 7 7 6 5 5 7 8 8 7 8 11 11 11 11 11 11 11 12 13 9 8 7 6 5 4
5 5 4 4 3 3 3 4 3 3 3 4 3 3 5 5 5 5 5 6 6 6 6 6 6 7 8 8 10 11 12 12 12 11 11 12 12 8 7 7 6 4 3 2
4 5 4 4 2 1 3 4 3 4 4 4 3 3 5 4 5 6 5 6 6 6 6 6 6 7 7 9 9 10 11 10 11 10 10 10 9 8 7 6 4 2 1 -0
4 4 1 2 2 4 3 4 2 3 4 3 3 3 4 5 5 5 4 5 6 6 6 6 6 8 10 9 9 10 9 9 9 9 10 8 7 5 3 3 2 1 -0 -2
3 2 3 4 4 4 3 3 4 3 4 3 4 4 5 4 6 6 4 6 5 6 7 7 7 8 7 6 6 4 3 4 4 4 4 5 6 3 1 -0 -1 -1 -2 -3
5 4 4 4 4 3 4 4 4 4 4 4 4 4 4 4 4 5 4 5 5 6 5 7 7 7 5 5 4 3 2 2 1 1 1 1 1 1 -0 -1 -2 -3 -5 -6
6 3 3 4 1 1 1 4 4 4 3 4 4 4 4 3 3 4 4 6 6 5 7 7 7 3 3 2 2 1 0 -0 -0 -1 -1 -1 -2 -2 -2 -3 -5 -6 -7 -7
2 1 -1 -1 -1 -0 0 2 3 2 2 3 3 4 4 3 4 4 5 4 5 6 7 7 3 1 1 0 0 -0 -1 -1 -2 -2 -2 -3 -4 -5 -6 -6 -7 -7 -8 -9
-1 -0 -1 -2 -1 -2 -1 -1 1 -0 0 3 4 4 5 4 4 5 5 5 6 6 5 0 -0 -0 -0 -1 -2 -2 -3 -3 -4 -4 -5 -5 -6 -6 -7 -7 -8 -8 -9 -10
-3 -4 -3 -4 -2 -3 -3 -3 -1 -2 -1 1 3 4 4 4 4 5 4 5 4 0 -1 -1 -1 -2 -2 -3 -3 -4 -4 -5 -5 -6 -6 -7 -7 -7 -8 -9 -9 -10 -10 -10
-3 -4 -4 -4 -5 -5 -5 -4 -3 -3 -1 3 2 2 1 2 2 1 0 -1 -1 -1 -2 -3 -3 -3 -4 -4 -4 -5 -5 -6 -6 -7 -7 -7 -8 -8 -8 -9 -10 -10 -11 -12

GFSNW_925_temp_096.txt.gz
Temp
2 2 3 3 3 4 3 5 5 4 5 5 7 8 8 8 10 10 10 11 11 11 12 12 13 13 15 16 15 15 15 15 15 17 20 20 19 21 22 21 21 22 22 23
2 2 2 2 3 3 2 4 6 3 5 6 7 8 8 8 9 9 10 10 11 12 11 11 13 13 14 14 14 14 13 14 15 17 19 18 18 19 19 19 20 20 21 23
3 2 2 2 2 3 3 3 5 5 4 6 8 8 8 8 9 8 9 10 10 11 11 12 11 12 13 13 13 12 13 14 15 17 17 17 17 17 18 18 17 20 21 22
3 2 2 2 2 3 3 3 5 7 5 5 5 8 8 8 8 9 9 9 9 10 10 11 11 12 12 13 14 14 14 13 15 15 16 16 17 17 18 18 18 18 19 21
2 2 3 2 2 3 2 3 5 7 8 8 7 6 7 8 8 8 9 8 10 10 9 11 11 10 11 11 12 12 11 13 13 14 15 16 16 17 18 19 19 20 20 20
2 2 2 2 2 3 1 2 5 6 7 8 7 7 7 8 9 9 10 9 9 9 9 8 7 8 9 10 11 11 11 12 12 13 15 15 14 16 18 19 21 20 19 21
2 2 2 2 2 3 3 2 6 5 5 7 8 8 9 9 9 8 10 10 9 10 7 7 8 8 8 10 11 11 10 10 10 12 13 13 18 19 20 19 20 20 20 21
2 2 2 2 3 3 2 3 4 5 5 7 8 8 8 9 9 9 9 10 10 7 6 7 7 8 9 11 12 12 12 12 10 11 13 16 17 19 18 18 19 20 19 21
2 2 2 3 3 3 2 3 3 4 4 6 8 8 8 8 8 8 9 10 8 6 6 7 8 10 11 12 13 13 13 11 11 12 11 12 18 18 18 18 18 18 18 18
2 3 3 3 3 3 3 3 3 3 3 6 5 5 6 9 9 7 8 8 7 6 6 7 8 9 12 11 11 10 9 9 9 11 11 14 17 17 17 15 16 16 16 16
2 2 3 3 3 3 3 3 3 3 3 5 7 7 6 5 6 6 6 7 8 7 7 8 9 9 12 12 13 12 11 10 9 9 10 11 16 13 11 12 14 16 15 15
2 2 3 3 3 3 3 3 3 2 4 4 5 6 6 7 9 8 7 8 8 7 9 9 10 10 11 12 12 15 13 14 14 13 12 15 15 13 12 13 14 16 14 13
3 3 3 3 3 3 3 3 3 2 3 2 4 5 5 6 8 9 7 9 10 9 9 7 9 9 11 10 12 13 15 15 14 14 15 14 12 11 12 14 16 15 16 16
3 3 3 3 3 3 3 3 3 3 2 4 5 5 6 7 7 8 9 10 10 10 9 7 7 9 10 11 12 12 15 15 14 15 15 15 16 16 16 16 16 14 14 16
3 3 4 4 3 3 3 3 3 3 5 5 7 7 6 7 7 7 8 9 9 8 7 6 7 10 10 11 11 12 14 14 14 14 16 15 15 16 16 16 16 14 12 16
4 4 4 4 4 3 3 2 3 3 4 4 6 8 7 7 7 7 9 9 9 8 6 7 7 10 10 10 12 14 15 15 16 15 16 15 15 15 15 15 13 11 11 13
4 4 4 4 4 3 3 4 4 3 3 4 5 8 7 8 7 8 8 8 7 6 5 6 7 10 10 9 10 13 14 15 15 16 15 14 15 15 15 13 11 9 8 7
4 4 4 4 4 3 3 4 3 3 3 4 5 7 7 8 8 8 8 7 7 6 6 6 7 8 7 8 12 13 14 14 15 15 15 15 15 15 13 12 10 8 6 5
5 5 4 4 3 2 3 3 3 4 5 5 5 7 7 7 8 9 8 9 7 8 7 7 8 8 9 11 12 13 14 14 14 15 14 14 14 14 12 10 9 7 4 2
5 4 1 2 1 3 3 3 3 3 5 4 6 8 6 7 6 6 6 7 8 7 8 9 7 9 12 13 13 13 12 12 12 12 13 14 13 11 9 9 7 5 2 -0
2 1 3 3 4 5 3 4 5 5 5 5 7 8 7 6 7 7 7 6 7 7 9 8 10 10 12 13 12 10 7 8 8 8 9 9 9 10 7 5 4 3 0 -2
3 4 4 4 3 4 5 5 5 6 7 5 5 7 9 5 6 7 5 7 6 8 8 8 10 8 6 6 6 5 4 4 4 5 6 6 6 7 5 3 2 -1 -3 -5
7 5 3 5 3 5 6 5 5 5 6 5 4 5 5 4 5 6 6 6 7 8 7 9 7 3 3 2 3 2 2 1 1 1 3 3 3 2 1 -1 -3 -5 -6 -7
4 4 2 4 4 4 4 6 6 3 4 4 5 5 6 5 5 6 6 6 7 7 8 8 3 2 2 2 1 1 -0 -1 -1 -1 -1 -1 -2 -3 -4 -5 -6 -7 -7 -8
2 3 2 1 1 1 1 1 3 1 1 4 5 5 5 5 6 6 6 6 7 8 6 3 2 1 0 0 -0 -1 -2 -3 -3 -4 -4 -5 -5 -5 -6 -7 -7 -8 -9 -9
-0 -1 1 -0 2 0 0 0 1 0 0 2 4 5 5 5 6 6 5 7 7 3 2 1 1 -0 -1 -2 -2 -3 -4 -4 -5 -6 -6 -7 -7 -8 -9 -9 -9 -10 -10 -10
-1 -2 -2 -1 -1 -2 -1 -1 -1 -1 0 5 5 5 4 4 4 3 3 2 1 0 0 -1 -2 -2 -2 -3 -3 -4 -4 -5 -5 -6 -7 -7 -8 -8 -8 -8 -10 -10 -11 -12

GFSNW_925_temp_102.txt.gz
Temp
3 3 3 3 3 3 3 3 5 8 7 6 7 8 11 12 14 15 14 14 14 14 15 16 16 17 18 19 18 17 17 16 16 19 20 21 20 21 20 19 19 21 20 21
2 2 2 2 3 3 3 3 5 8 6 6 7 10 10 12 13 13 13 13 14 14 14 13 15 16 17 17 17 16 16 16 15 17 19 21 20 21 22 22 21 20 19 20
2 2 2 2 2 2 2 3 5 7 5 7 8 7 10 12 14 13 13 13 14 13 13 14 14 14 16 16 16 13 13 14 14 15 18 17 16 17 18 21 15 19 21 22
2 2 2 2 2 2 2 1 5 8 7 7 8 9 7 8 11 12 13 12 12 12 12 13 13 14 15 16 15 15 15 13 14 15 17 17 17 17 17 18 19 17 19 21
2 2 2 2 3 3 1 3 4 9 8 6 7 9 9 10 11 13 10 12 13 13 12 13 13 14 14 14 15 15 15 13 14 14 16 17 17 18 18 18 19 20 21 21
2 2 2 3 3 2 1 2 3 4 8 9 8 9 8 10 11 11 12 12 9 10 12 11 11 11 12 12 11 11 11 13 13 13 15 16 16 17 18 19 20 20 19 21
2 3 2 3 3 2 1 3 6 5 7 8 9 8 9 9 10 10 12 11 11 12 12 12 12 12 12 12 12 13 11 10 12 12 13 12 17 20 20 20 21 22 22 22
2 2 2 2 3 3 2 2 4 6 6 9 9 9 10 11 11 8 8 11 12 10 10 9 10 11 11 11 13 13 13 12 10 11 13 15 17 19 19 16 18 17 16 18
2 2 3 3 3 3 2 3 3 4 5 7 9 9 9 9 9 11 12 13 10 9 9 7 8 9 10 10 13 14 13 13 12 11 11 12 17 18 19 18 16 15 16 15
2 2 3 3 3 3 2 3 4 3 5 7 8 7 7 9 9 9 8 9 10 10 6 7 9 10 12 10 11 9 12 11 10 11 10 14 18 18 19 15 14 13 15 16
2 2 2 3 3 3 2 3 4 4 5 6 8 8 7 6 7 7 6 8 9 6 7 8 10 10 11 12 13 9 10 10 10 11 11 11 17 17 14 14 15 14 15 15
1 2 2 2 3 3 3 3 5 4 3 6 7 8 8 9 8 7 7 6 6 5 7 8 8 8 10 10 11 12 10 13 12 13 14 16 16 16 15 14 14 14 14 15
1 1 2 2 2 2 3 3 4 4 4 4 6 6 8 8 8 8 8 9 10 9 6 6 7 7 8 9 11 11 13 12 12 12 14 13 15 17 15 15 14 15 15 15
2 2 2 2 2 3 3 3 4 4 4 4 6 8 8 7 8 8 8 8 9 9 8 5 7 8 10 9 9 9 12 14 14 14 14 15 16 16 15 15 15 15 16 15
2 2 2 2 2 3 3 3 3 4 4 6 5 6 7 9 9 8 8 9 8 8 6 6 7 9 9 11 11 11 14 14 14 12 13 13 13 16 17 16 16 15 14 14
2 2 3 3 3 3 3 3 3 3 4 4 5 9 9 9 9 9 9 9 8 7 5 6 8 10 9 9 10 14 15 14 15 15 16 16 16 17 17 17 15 13 12 9
3 2 3 3 3 3 3 4 5 3 3 2 4 6 10 10 9 9 9 9 8 6 5 6 8 9 10 7 9 12 14 15 15 16 16 15 16 16 17 17 13 10 7 5
3 3 3 3 3 3 2 3 4 3 2 2 5 6 9 10 8 7 9 8 8 5 6 6 7 10 10 8 11 13 14 15 15 16 17 15 16 16 17 17 14 12 6 3
3 3 3 3 3 1 3 3 3 3 3 5 4 7 8 9 9 9 8 9 7 9 7 8 10 9 9 11 12 13 14 14 15 16 15 15 15 13 16 15 14 10 5 2
3 3 0 1 1 3 3 2 3 3 3 5 6 9 8 9 9 8 8 8 8 8 9 11 9 9 12 13 13 14 14 14 13 13 13 12 12 13 13 13 12 10 4 1
0 1 3 2 4 4 3 4 4 4 5 6 8 9 9 10 8 8 9 7 8 8 11 10 10 11 8 9 8 7 7 9 9 10 10 10 10 10 11 11 7 4 1 -1
3 4 3 3 4 4 5 5 6 6 8 9 8 10 10 8 9 7 6 7 6 7 9 8 10 5 5 6 6 6 5 5 6 6 6 7 7 7 8 6 3 -0 -3 -5
5 5 3 5 4 5 6 6 7 8 8 8 8 7 6 7 8 6 6 6 7 10 8 9 5 4 4 4 4 4 5 1 2 2 2 1 0 -0 0 -1 -3 -4 -5 -7
4 4 5 6 5 7 7 8 9 7 8 8 8 7 8 7 6 6 6 8 8 8 8 7 2 2 2 2 2 2 1 -0 -1 -1 -1 -2 -3 -3 -4 -4 -5 -6 -7 -7
4 6 5 4 3 4 3 4 4 4 5 8 7 8 7 6 6 6 7 7 7 8 5 3 1 1 1 0 -0 -1 -1 -2 -2 -3 -4 -4 -5 -5 -6 -6 -7 -7 -8 -8
2 2 3 3 4 3 3 3 2 2 2 4 6 5 5 6 7 7 8 8 6 3 2 1 1 -0 -1 -1 -1 -2 -3 -3 -4 -5 -6 -7 -7 -7 -8 -8 -9 -9 -9 -9
2 1 1 2 2 1 1 1 1 1 2 5 5 6 7 7 7 5 4 3 2 1 0 -0 -1 -1 -1 -2 -2 -3 -3 -4 -5 -6 -7 -7 -8 -8 -8 -8 -9 -9 -10 -10